Flag for Algeria Weather past 2 weeks in Constantine, Algeria

Now
45 °F

Passing clouds.


Feels Like: 39 °F
Forecast: 42 / 52 °F
Wind: 12 mph from West

Location: Constantine Airport

Current Time: Dec 27, 2014 at 11:18:44 PM

Latest Report: Dec 27, 2014 at 10:30 PM


Visibility: N/A

Pressure: 30.01 "Hg

Humidity: 76%

Dew point: 37 °F

Location of ConstantineLocation

Historic Weather in Constantine — Graph

°F

Constantine temperature yesterday

Maximum temperature yesterday: 54 °F (at 1:00 PM)
Minimum temperature yesterday: 41 °F (at 3:00 AM)
Average temperature yesterday: 46 °F

Past Weeks' High & Low Weather Summary

 TemperatureHumidityPressure
High61 °F (Dec 20, 1:30 PM)100% (Dec 18, 11:00 PM)30.54 "Hg (Dec 18, 11:00 PM)
Low32 °F (Dec 24, 6:00 AM)33% (Dec 27, 2:00 AM)29.89 "Hg (Dec 16, 3:00 PM)
Average46 °F80%30.27 "Hg
* Reported Dec 12 10:00 PM — Dec 27 10:00 PM, Constantine, Weather by CustomWeather, © 2014

Note: Actual official high and low records may vary slightly from our data, if they occured in-between our weather recording intervals... More about our weather records

Advertising

Constantine weather history for previous 24 hours

 ConditionsComfort  
Time TempWeatherWind HumidityBarometerVisibility
10:00 PM
Dec 27
45 °FPassing clouds.12 mph76%30.01 "HgN/A
9:30 PM46 °FPassing clouds.12 mph71%30.04 "HgN/A
9:00 PM46 °FPassing clouds.12 mph71%30.04 "HgN/A
8:30 PM46 °FPartly cloudy.12 mph71%30.04 "HgN/A
8:00 PM48 °FPassing clouds.13 mph66%30.07 "HgN/A
7:30 PM48 °FPassing clouds.10 mph71%30.04 "HgN/A
7:00 PM48 °FPassing clouds.10 mph71%30.07 "HgN/A
6:30 PM48 °FPassing clouds.8 mph66%30.04 "HgN/A
5:30 PM50 °FPassing clouds.12 mph67%30.07 "HgN/A
5:00 PM52 °FScattered clouds.12 mph58%30.09 "HgN/A
4:30 PM52 °FScattered clouds.13 mph62%30.07 "HgN/A
4:00 PM52 °FScattered clouds.14 mph62%30.09 "HgN/A
3:30 PM54 °FPartly sunny.12 mph58%30.09 "HgN/A
3:00 PM54 °FScattered clouds.9 mph63%30.09 "HgN/A
2:00 PM50 °FPartly sunny.8 mph71%30.15 "HgN/A
1:30 PM50 °FBroken clouds.10 mph67%30.15 "HgN/A
1:00 PM52 °FBroken clouds.10 mph62%30.18 "HgN/A
12:30 PM50 °FPartly sunny.9 mph71%30.18 "HgN/A
12:00 PM50 °FScattered clouds.9 mph67%30.21 "HgN/A
11:30 AM50 °FPassing clouds.9 mph67%30.24 "HgN/A
11:00 AM48 °FPassing clouds.9 mph71%30.27 "HgN/A
10:30 AM48 °FPassing clouds.9 mph71%30.24 "HgN/A
10:00 AM46 °FPassing clouds.9 mph71%30.27 "HgN/A
9:30 AM48 °FPassing clouds.9 mph76%30.27 "HgN/A
9:00 AM46 °FScattered clouds.7 mph76%30.27 "HgN/A
8:30 AM43 °FScattered clouds.6 mph87%30.27 "HgN/A
8:00 AM39 °FScattered clouds.6 mph81%30.27 "HgN/A
7:30 AM39 °FPassing clouds.6 mph81%30.27 "HgN/A
7:00 AM37 °FPassing clouds.7 mph87%30.27 "HgN/A
6:30 AM39 °FPassing clouds.9 mph81%30.27 "HgN/A
6:00 AM39 °FPassing clouds.9 mph87%30.27 "HgN/A
5:00 AM41 °FPassing clouds.13 mph81%30.27 "HgN/A
4:30 AM41 °FPassing clouds.12 mph87%30.30 "HgN/A
4:00 AM41 °FPassing clouds.12 mph87%30.30 "HgN/A
3:30 AM43 °FPassing clouds.5 mph87%30.30 "HgN/A
3:00 AM43 °FPassing clouds.5 mph87%30.30 "HgN/A
2:30 AM41 °FPassing clouds.7 mph33%30.30 "HgN/A
2:00 AM41 °FPassing clouds.7 mph33%30.30 "HgN/A
1:00 AM43 °FPassing clouds.12 mph81%30.30 "HgN/A
12:30 AM45 °FPassing clouds.12 mph81%30.30 "HgN/A
12:00 AM45 °FPassing clouds.12 mph81%30.30 "HgN/A
11:30 PM
Dec 26
45 °FPassing clouds.5 mph87%30.30 "HgN/A
11:00 PM45 °FPassing clouds.12 mph87%30.30 "HgN/A
Weather by CustomWeather, © 2014

See weather overviewHow to use our weather pages